Weather History for Coleman, TX

Change the Weather History Date:

Wednesday, November 13, 2013

  Actual Average (KABI) Record (KABI)
Temperature  
Mean Temperature 38 °F 56 °F  
Max Temperature 54 °F 67 °F 85 °F (1944)
Min Temperature 23 °F 44 °F 21 °F (1986)
Degree Days  
Heating Degree Days 26 10  
Month to date heating degree days 102  
Since 1 July heating degree days 206  
Cooling Degree Days 0 1  
Month to date cooling degree days 15  
Year to date cooling degree days 2404  
Moisture  
Dew Point 17 °F    
Average Humidity 46    
Maximum Humidity 75    
Minimum Humidity 20    
Precipitation  
Precipitation 0.00 in 0.05 in 1.44 in (1934)
Month to date precipitation 0.73  
Year to date precipitation 22.91  
Sea Level Pressure  
Sea Level Pressure 30.53 in    
Wind  
Wind Speed 5 mph (South)    
Max Wind Speed 8 mph    
Max Gust Speed -    
Visibility 10 miles    
Events      
T = Trace of Precipitation, MM = Missing Value Source: NWS Daily Summary

Daily Weather History Graph

Daily Weather History Graph

Search for Another Location

Airport:

Trip Planner

Search our weather history database for the weather conditions in past years. The results will help you decide how hot, cold, wet, or windy it might be!

Date:

Astronomy

Nov. 13, 2013 Rise Set
Actual Time 7:04 AM CST 5:39 PM CST
Civil Twilight 6:38 AM CST 6:04 PM CST
Nautical Twilight 6:09 AM CST 6:34 PM CST
Astronomical Twilight 5:40 AM CST 7:03 PM CST
Moon 3:15 PM CST (11/13) 3:12 AM CST (11/13)
Length of Visible Light 11h 26m
Length of Day
10h 34m
Waxing Gibbous, 85% of the Moon is Illuminated
Nov 13
Waxing Gibbous
Nov 17
Full
Nov 25
Last Quarter
Dec 2
New
Dec 9
First Quarter

Hourly Weather History & Observations

Time (CST) Temp. Windchill Dew Point Humidity Pressure Visibility Wind Dir Wind Speed Gust Speed Precip Events Conditions
12:15 AM 30.9 °F 23.5 °F 17.1 °F 57% 30.67 in 10.0 mi North 8.1 mph - N/A   Clear
12:35 AM 30.0 °F 23.2 °F 16.7 °F 58% 30.67 in 10.0 mi North 6.9 mph - N/A   Clear
12:55 AM 30.0 °F 23.2 °F 16.7 °F 58% 30.66 in 10.0 mi North 6.9 mph - N/A   Clear
1:15 AM 30.6 °F 23.8 °F 16.5 °F 56% 30.66 in 10.0 mi North 6.9 mph - N/A   Clear
1:35 AM 28.8 °F 20.9 °F 16.7 °F 61% 30.66 in 10.0 mi North 8.1 mph - N/A   Clear
1:55 AM 28.8 °F 20.9 °F 16.5 °F 60% 30.66 in 10.0 mi North 8.1 mph - N/A   Clear
2:15 AM 28.4 °F 21.2 °F 16.5 °F 61% 30.66 in 10.0 mi North 6.9 mph - N/A   Clear
2:35 AM 28.4 °F 21.2 °F 16.3 °F 61% 30.66 in 10.0 mi North 6.9 mph - N/A   Clear
2:55 AM 27.9 °F 22.6 °F 16.3 °F 62% 30.66 in 10.0 mi North 4.6 mph - N/A   Clear
3:15 AM 27.5 °F 22.2 °F 15.6 °F 61% 30.66 in 10.0 mi North 4.6 mph - N/A   Clear
3:35 AM 27.3 °F 22.0 °F 15.4 °F 61% 30.66 in 10.0 mi North 4.6 mph - N/A   Clear
3:55 AM 27.3 °F 22.0 °F 15.4 °F 61% 30.65 in 10.0 mi North 4.6 mph - N/A   Clear
4:15 AM 26.6 °F 20.0 °F 15.3 °F 62% 30.65 in 10.0 mi North 5.8 mph - N/A   Clear
4:35 AM 27.1 °F 23.2 °F 14.9 °F 60% 30.65 in 10.0 mi NNW 3.5 mph - N/A   Clear
4:55 AM 26.2 °F 22.1 °F 15.8 °F 65% 30.65 in 10.0 mi NNW 3.5 mph - N/A   Clear
5:15 AM 26.6 °F 21.2 °F 15.3 °F 62% 30.64 in 10.0 mi NNW 4.6 mph - N/A   Clear
5:35 AM 27.1 °F 23.2 °F 15.3 °F 61% 30.64 in 10.0 mi NNW 3.5 mph - N/A   Clear
5:55 AM 24.6 °F - 15.8 °F 69% 30.64 in 10.0 mi Calm Calm - N/A   Clear
6:15 AM 24.4 °F - 15.8 °F 70% 30.64 in 10.0 mi Calm Calm - N/A   Clear
6:35 AM 24.6 °F 20.3 °F 15.8 °F 69% 30.63 in 10.0 mi NW 3.5 mph - N/A   Clear
6:55 AM 23.5 °F - 15.8 °F 72% 30.63 in 10.0 mi Calm Calm - N/A   Clear
7:15 AM 23.2 °F 18.7 °F 16.2 °F 75% 30.63 in 10.0 mi West 3.5 mph - N/A   Clear
7:35 AM 24.3 °F - 16.7 °F 73% 30.63 in 10.0 mi Calm Calm - N/A   Clear
7:55 AM 27.7 °F - 18.0 °F 67% 30.64 in 10.0 mi Calm Calm - N/A   Clear
8:15 AM 30.9 °F - 17.4 °F 57% 30.64 in 10.0 mi Calm Calm - N/A   Clear
8:35 AM 32.4 °F - 16.3 °F 52% 30.65 in 10.0 mi Calm Calm - N/A   Clear
8:55 AM 34.5 °F 31.6 °F 15.8 °F 46% 30.64 in 10.0 mi ENE 3.5 mph - N/A   Clear
9:15 AM 35.6 °F 32.8 °F 15.6 °F 44% 30.64 in 10.0 mi ESE 3.5 mph - N/A   Clear
9:35 AM 37.4 °F - 16.9 °F 43% 30.64 in 10.0 mi Calm Calm - N/A   Clear
9:55 AM 39.2 °F - 16.3 °F 40% 30.63 in 10.0 mi Calm Calm - N/A   Clear
10:15 AM 41.2 °F 39.2 °F 17.1 °F 38% 30.63 in 10.0 mi SSE 3.5 mph - N/A   Clear
10:35 AM 42.6 °F 40.9 °F 17.1 °F 36% 30.62 in 10.0 mi SE 3.5 mph - N/A   Clear
10:55 AM 44.2 °F 41.8 °F 16.9 °F 33% 30.61 in 10.0 mi SSE 4.6 mph - N/A   Clear
11:15 AM 44.8 °F - 16.7 °F 32% 30.60 in 10.0 mi Calm Calm - N/A   Clear
11:35 AM 46.4 °F - 15.8 °F 29% 30.59 in 10.0 mi Calm Calm - N/A   Clear
11:55 AM 47.5 °F - 14.9 °F 27% 30.57 in 10.0 mi SSW 3.5 mph - N/A   Clear
12:15 PM 49.3 °F - 16.9 °F 28% 30.56 in 10.0 mi South 3.5 mph - N/A   Clear
12:35 PM 49.8 °F - 15.6 °F 26% 30.55 in 10.0 mi South 3.5 mph - N/A   Clear
12:55 PM 50.4 °F - 16.2 °F 26% 30.52 in 10.0 mi Calm Calm - N/A   Clear
1:15 PM 50.4 °F - 14.2 °F 24% 30.51 in 10.0 mi Calm Calm - N/A   Clear
1:35 PM 52.2 °F - 15.3 °F 23% 30.50 in 10.0 mi South 4.6 mph - N/A   Clear
1:55 PM 52.0 °F - 15.4 °F 24% 30.49 in 10.0 mi Calm Calm - N/A   Clear
2:15 PM 52.7 °F - 13.1 °F 21% 30.47 in 10.0 mi Calm Calm - N/A   Clear
2:35 PM 53.4 °F - 12.6 °F 20% 30.46 in 10.0 mi SSW 3.5 mph - N/A   Clear
2:55 PM 54.0 °F - 14.4 °F 21% 30.45 in 10.0 mi Calm Calm - N/A   Clear
3:15 PM 54.5 °F - 14.4 °F 20% 30.44 in 10.0 mi SSE 3.5 mph - N/A   Clear
3:35 PM 54.5 °F - 14.2 °F 20% 30.43 in 10.0 mi Calm Calm - N/A   Clear
3:55 PM 54.3 °F - 14.5 °F 21% 30.42 in 10.0 mi SSE 5.8 mph - N/A   Clear
4:15 PM 54.5 °F - 14.7 °F 21% 30.42 in 10.0 mi SSW 3.5 mph - N/A   Clear
4:35 PM 54.0 °F - 14.0 °F 21% 30.42 in 10.0 mi South 5.8 mph - N/A   Clear
4:55 PM 53.6 °F - 15.6 °F 22% 30.41 in 10.0 mi South 5.8 mph - N/A   Clear
5:15 PM 52.5 °F - 16.3 °F 24% 30.40 in 10.0 mi South 5.8 mph - N/A   Clear
5:35 PM 49.6 °F - 16.3 °F 27% 30.39 in 10.0 mi SSW 4.6 mph - N/A   Clear
5:55 PM 48.4 °F - 17.1 °F 29% 30.39 in 10.0 mi South 3.5 mph - N/A   Clear
6:15 PM 47.7 °F - 17.4 °F 30% 30.39 in 10.0 mi South 3.5 mph - N/A   Clear
6:35 PM 43.9 °F 41.3 °F 17.8 °F 35% 30.39 in 10.0 mi SSE 4.6 mph - N/A   Clear
6:55 PM 42.8 °F 40.1 °F 19.9 °F 40% 30.40 in 10.0 mi SSE 4.6 mph - N/A   Clear
7:15 PM 41.4 °F 37.6 °F 20.1 °F 43% 30.39 in 10.0 mi SSE 5.8 mph - N/A   Clear
7:35 PM 40.5 °F 36.5 °F 19.6 °F 43% 30.39 in 10.0 mi SSE 5.8 mph - N/A   Clear
7:55 PM 40.1 °F 36.9 °F 19.9 °F 44% 30.39 in 10.0 mi SSE 4.6 mph - N/A   Clear
8:15 PM 40.1 °F 36.1 °F 20.5 °F 45% 30.39 in 10.0 mi SSE 5.8 mph - N/A   Clear
8:35 PM 40.6 °F 36.7 °F 21.2 °F 46% 30.39 in 10.0 mi SSE 5.8 mph - N/A   Clear
8:55 PM 39.2 °F 35.0 °F 21.7 °F 50% 30.38 in 10.0 mi South 5.8 mph - N/A   Clear
9:15 PM 38.7 °F 34.3 °F 22.1 °F 51% 30.38 in 10.0 mi South 5.8 mph - N/A   Clear
9:35 PM 38.3 °F 33.9 °F 23.0 °F 54% 30.37 in 10.0 mi South 5.8 mph - N/A   Clear
9:55 PM 37.4 °F 32.8 °F 22.6 °F 55% 30.37 in 10.0 mi South 5.8 mph - N/A   Clear
10:15 PM 39.2 °F 33.6 °F 23.4 °F 53% 30.37 in 10.0 mi South 8.1 mph - N/A   Clear
10:35 PM 38.5 °F 34.1 °F 23.5 °F 55% 30.37 in 10.0 mi South 5.8 mph - N/A   Clear
10:55 PM 37.6 °F 33.1 °F 23.7 °F 57% 30.36 in 10.0 mi South 5.8 mph - N/A   Clear
11:15 PM 37.2 °F 33.6 °F 24.6 °F 60% 30.36 in 10.0 mi South 4.6 mph - N/A   Clear
11:35 PM 36.7 °F 32.9 °F 23.9 °F 60% 30.36 in 10.0 mi South 4.6 mph - N/A   Clear
11:55 PM 36.0 °F 32.1 °F 24.1 °F 62% 30.35 in 10.0 mi South 4.6 mph - N/A   Clear